Location: Asheville, NC
(35.6000°N, 82.5500°W)
Time: 02:29:17
(UTC-05:00)

Tiangong 2 - Pass Details

Date: 17 February 2018
Orbit: 384 x 388 km, 42.8° (Epoch: 18 February)

Event Time Altitude Azimuth Distance (km) Brightness Sun altitude
Rises 19:40:29 0° 297° (WNW) 2,259 6.0 -18.2°
Reaches altitude 10° 19:42:47 10° 312° (NW) 1,404 4.5 -18.6°
Enters shadow 19:45:13 24° 2° (N) 839 2.7 -19.1°
